Regional Weather Roundup
Issued by NWS Northern Indiana

Home | Current Version | Previous Version | Graphics & Text | Print | Product List | Glossary On
Versions: 1 2 3 4 5 6 7 8 9 10 11 12 13 14 15 16 17 18 19 20 21 22 23 24 25 26 27 28 29 30 31 32 33 34 35 36 37 38 39 40 41 42 43 44 45 46 47 48 49 50
456
ASUS43 KIWX 271910
RWRIWX

KIWX WEATHER ROUNDUP
NATIONAL WEATHER SERVICE NORTHERN INDIANA
300 PM EDT THU APR 27 2017

NOTE: "FAIR" INDICATES FEW OR NO CLOUDS BELOW 12,000 FEET WITH NO
SIGNIFICANT WEATHER AND/OR OBSTRUCTIONS TO VISIBILITY.

* THESE STATIONS ARE NOT UNDER NWS QUALITY CONTROL. THEY ALSO MAY NOT
  REPORT WEATHER SUCH AS PRECIPITATION OR FOG.

INZ001>027-272000-
NORTHERN INDIANA

CITY           SKY/WX    TMP DP  RH WIND       PRES   REMARKS
GARY*          CLOUDY    46  37  71 W14G28    29.66R
VALPARAISO     CLOUDY    48  39  71 SW21G28   29.68R
MICHIGAN CITY* CLOUDY    46  37  71 W10G22    29.67R
LAPORTE*       CLOUDY    47  40  75 W16G23    29.67R
KNOX*          CLOUDY    46  23  39 W17G23    29.67R
SOUTH BEND     CLOUDY    48  40  73 SW15G31   29.66R
ELKHART*       CLOUDY    50  41  71 SW12G17   29.65R
GOSHEN         CLOUDY    51  41  68 SW22G29   29.65R
MONTICELLO*    CLOUDY    49  41  74 SW17G24   29.70R
LOGANSPORT*    CLOUDY    50  43  76 W21       29.71R
ROCHESTER*     PTSUNNY   52  41  66 SW17G25   29.69R
WARSAW*        CLOUDY    48  41  76 W20G26    29.67R
ANGOLA*        CLOUDY    55  45  67 W13       29.63R
FORT WAYNE     CLOUDY    55  44  66 W20G28    29.67R
HUNTINGTON*    CLOUDY    52  44  73 W17G26    29.69R
PERU/GRISSOM   CLOUDY    51  45  79 W21G29    29.69R
MARION*        CLOUDY    52  45  76 W21       29.71R HAZE

$$
INZ028>050-272000-
CENTRAL INDIANA

CITY           SKY/WX    TMP DP  RH WIND       PRES   REMARKS
LAFAYETTE      CLOUDY    50  44  80 W15G21    29.71R
KOKOMO*        CLOUDY    51  44  77 W20       29.71R
MUNCIE*        CLOUDY    56  44  64 W20G28    29.70R
INDIANAPOLIS   CLOUDY    55  44  66 SW16      29.73R

$$
MIZ043>046-050>051-056>058-064>065-071>073-077>080-272000-
SOUTHWEST LOWER MICHIGAN

CITY           SKY/WX    TMP DP  RH WIND       PRES   REMARKS
BATTLE CREEK   CLOUDY    54  44  69 SW20G26   29.60R
BENTON HARBOR  CLOUDY    51  39  63 W28G36    29.64R
COLDWATER*     CLOUDY    55  44  64 SW17G23   29.61R
HILLSDALE*     MOSUNNY   59  45  58 W18G25    29.59R
HOLLAND        CLOUDY    49  40  71 SW23G29   29.61R
GRAND RAPIDS   CLOUDY    50  42  74 SW22G29   29.58R
KALAMAZOO      CLOUDY    53  42  66 SW15      29.61R
STURGIS*       CLOUDY    52  43  72 SW20G25   29.62R
THREE RIVERS*  CLOUDY    52  41  66 W16G24    29.63R

$$
OHZ001>008-015>018-024>025-272000-
NORTHWEST OHIO

CITY           SKY/WX    TMP DP  RH WIND       PRES   REMARKS
WAUSEON*       FAIR      66  50  55 W21G30    29.60R
DEFIANCE       PTSUNNY   60  46  59 W15G26    29.62R
FINDLAY        PTSUNNY   66  51  58 W29G35    29.60R
TOLEDO EXPRESS MOSUNNY   66  51  58 SW24G33   29.58R
TOLEDO METCALF PTSUNNY   67  53  61 SW25G37   29.58R
LIMA           PTSUNNY   65  52  62 W24G33    29.63R

$$
AND FOR LAKE MICHIGAN COASTAL AND OPEN LAKE BUOY OBSERVATIONS

STATION/POSITION TEMP    WIND        PRES    VSBY  WAVE
                 AIR SEA DIR/SP/G                  HT/PER
                 (F)     (DEG/KT/KT) (MB)    (MI)  (FT/S)
CALUMET HARBOR    46     220/  8/ 19 1003.5R
MICHIGAN CITY     46     230/ 25/ 26   N/A
BURNS HARBOR      47     230/ 16/ 22 1004.7R
SOUTH LAKE BUOY   43 41  270/ 16/ 19 1002.2R         5/ 5
4 MI NW BRIDGMAN  46 48  260/ 17/ 23 1004.8          5/ 5
MICHIGAN CITY     45 48                N/A           5/ 4

$$
&&




USA.gov is the U.S. government's official web portal to all federal, state and local government web resources and services.